[[{"header":{"parameterUnit":"m.s-1","parameterCategory":1,"la1":30.2991,"la2":30.254,"lo1":-89.0895,"lo2":-89.0444,"dy":0.0017,"dx":0.0017,"nx":28,"ny":28,"refTime":"2023-10-05T09:00:00:Z","depth":0,"parameterNumber":2,"parameterNumberName":"U-component_of_WINDS"},"data":[0,0,0,0,0,0,0,0,0,0,0,0,0,0,0,0,0,0,0,0,0,0,0,0,0,0,0,0,0,0,0,0,0,0,0,0,0,0,0,0,0,0,0,0,0,0,0,0,0,0,0,0,0,0,0,0,0,0,-4.7536,-4.7538,0,-4.7784,-4.7787,-4.779,-4.7777,-4.7774,-4.777,-4.7767,-4.8019,-4.8029,-4.8039,0,0,0,0,0,0,0,0,0,0,0,0,0,-4.7049,-4.7058,-4.7535,-4.7538,-4.7542,-4.7784,-4.7787,-4.779,-4.7778,-4.7774,-4.7769,-4.7765,-4.8016,-4.8028,-4.804,0,0,0,0,0,0,0,0,0,0,0,0,0,-4.7275,-4.7061,-4.7535,-4.7565,-4.757,-4.7783,-4.7787,-4.7791,-4.7779,-4.7773,-4.7768,-4.7763,-4.8012,-4.8026,-4.8041,-4.824,0,0,-4.8087,-4.8094,0,0,0,0,0,0,0,0,-4.7262,-4.7293,-4.7557,-4.7563,-4.7569,-4.7744,-4.7708,-4.7942,-4.778,-4.7699,-4.7767,-4.7761,-4.7932,-4.7953,-4.8011,-4.8252,-4.8263,-4.8088,-4.8098,-4.8104,-4.8108,0,0,0,0,0,0,0,-4.7247,-4.7282,-4.7634,-4.7561,-4.7568,-4.7565,-4.7591,-4.7752,-4.7842,-4.7706,-4.7706,-4.7735,-4.7934,-4.7997,-4.8017,-4.8267,-4.8088,-4.8101,-4.8111,-4.8117,-4.8686,-4.8692,0,0,0,0,0,0,-4.7225,-4.7269,-4.7626,-4.7641,-4.74,-4.7578,-4.7608,-4.7693,-4.784,-4.7858,-4.774,-4.7734,-4.7974,-4.8,-4.8026,-4.8271,-4.8104,-4.8118,-4.8127,-4.868,-4.8688,-4.8694,0,0,0,0,0,0,-4.7214,-4.7257,-4.7616,-4.7455,-4.7501,-4.7592,-4.7689,-4.7701,-4.7764,-4.7866,-4.7882,-4.7787,-4.7971,-4.8005,-4.8188,-4.8279,-4.8125,-4.8138,-4.8673,-4.8683,-4.8691,-4.8761,0,0,0,0,0,0,-4.72,-4.7253,-4.733,-4.7457,-4.7509,-4.7774,-4.7694,-4.771,-4.779,-4.7785,-4.7915,-4.7931,-4.7969,-4.8166,-4.8203,-4.8297,-4.815,-4.8665,-4.8677,-4.8688,-4.8751,-4.8772,-4.8789,0,0,0,0,0,-4.7183,-4.7338,-4.7334,-4.7377,-4.7607,-4.7779,-4.7809,-4.785,-4.7797,-4.7875,-4.7941,-4.7927,-4.8263,-4.8184,-4.8226,-4.8327,-4.866,-4.8674,-4.8687,-4.8743,-4.8768,-4.8789,0,0,0,0,0,0,-4.7217,-4.7355,-4.7352,-4.7553,-4.7655,-4.7777,-4.7876,-4.7875,-4.7993,-4.7983,-4.8028,-4.8057,-4.8242,-4.8302,-4.8212,-4.8529,-4.8455,-4.8478,-4.8482,-4.8507,-4.8526,-4.8508,-4.8163,0,0,0,0,0,-4.7248,-4.7377,-4.749,-4.7657,-4.7708,-4.7784,-4.786,-4.7883,-4.799,-4.8033,-4.8112,-4.8216,-4.8345,-4.8429,-4.8553,-4.8759,-4.8789,-4.8849,-4.8868,-4.8883,-4.8903,-4.9019,-4.9048,-4.874,-4.874,-4.8739,0,0,-4.7313,-4.7405,-4.7483,-4.7666,-4.7748,-4.7881,-4.782,-4.7962,-4.8061,-4.8054,-4.8233,-4.8295,-4.8414,-4.861,-4.87,-4.8666,-4.8995,-4.8901,-4.8912,-4.8924,-4.9036,-4.9066,-4.9092,-4.8749,-4.8747,-4.8746,0,0,-4.7501,-4.7582,-4.7731,-4.7815,-4.794,-4.799,-4.8025,-4.8149,-4.819,-4.8371,-4.8369,-4.8487,-4.8708,-4.8794,-4.8866,-4.9089,-4.9082,-4.9128,-4.9228,-4.9341,-4.9365,-4.9387,-4.9469,-4.9497,-4.9147,-4.9147,-4.9147,0,-4.7565,-4.7766,-4.7807,-4.7952,-4.8033,-4.8035,-4.8187,-4.8265,-4.8424,-4.848,-4.844,-4.872,-4.8799,-4.9017,-4.9072,-4.913,-4.9173,-4.9114,-4.9358,-4.9381,-4.9402,-4.948,-4.9511,-4.9152,-4.9152,-4.9151,-4.9151,0,-4.7841,-4.798,-4.8085,-4.8241,-4.8334,-4.8481,-4.8545,-4.8635,-4.865,-4.8704,-4.8889,-4.8985,-4.913,-4.9183,-4.9198,-4.9405,-4.938,-4.9349,-4.9276,-4.9436,-4.951,-4.954,-4.916,-4.9158,-4.9156,-4.9155,0,0,-4.8055,-4.8235,-4.8273,-4.8345,-4.8484,-4.8592,-4.874,-4.8883,-4.896,-4.907,-4.9196,-4.9384,-4.9357,-4.944,-4.9465,-4.9564,-4.9737,-4.9521,-4.9524,-4.9559,-4.9973,-4.9997,-5.0031,-4.9733,-4.9738,-4.9743,-4.9964,0,-4.8258,-4.8522,-4.8565,-4.8797,-4.8927,-4.8931,-4.906,-4.916,-4.9215,-4.9333,-4.9393,-4.9527,-4.9479,-4.953,-4.9628,-4.9695,-4.9821,-4.968,-4.9851,-4.9857,-4.9823,-5.0069,-5.0094,-5.0298,-4.9993,-4.9998,-5.0001,0,-4.853,-4.865,-4.8895,-4.902,-4.9076,-4.9191,-4.9328,-4.944,-4.9554,-4.9587,-4.9681,-4.9695,-4.9849,-4.9769,-4.9984,-4.9887,-4.9959,-5.0003,-5.0012,-5.0031,-4.994,-5.0096,-5.0363,-5.0394,-5.0047,-5.0043,-5.004,0,-4.8665,-4.8887,-4.9063,-4.9124,-4.9273,-4.9355,-4.9421,-4.9529,-4.9614,-4.9732,-4.9788,-4.9923,-4.9997,-5.0101,-5.0152,-5.0089,-5.0364,-5.0287,-5.0397,-5.0396,-5.0455,-5.0451,-5.074,-5.05,-5.0499,-5.0499,-5.0498,0,-4.8888,-4.9038,-4.9126,-4.9235,-4.9404,-4.9452,-4.9618,-4.9681,-4.9778,-4.99,-4.991,-5.0024,-5.0083,-5.0206,-5.0246,-5.0419,-5.0452,-5.0484,-5.0493,-5.0484,-5.048,-5.0533,-5.0521,-5.0507,-5.0505,-5.0503,-5.0502,0,-4.9067,-4.9132,-4.9325,-4.9451,-4.9486,-4.9606,-4.9714,-4.982,-4.9874,-5.0028,-5.0067,-5.0153,-5.0298,-5.0359,-5.0536,-5.0564,-5.0763,-5.0761,-5.0725,-5.0729,-5.0836,-5.0825,-5.1169,-5.1218,-5.0944,-5.0946,-5.0949,0,-4.9206,-4.9322,-4.9462,-4.9545,-4.9614,-4.9746,-4.9833,-4.9885,-4.9976,-5.0116,-5.0205,-5.0351,-5.047,-5.0702,-5.078,-5.0917,-5.0919,-5.1031,-5.094,-5.0928,-5.0924,-5.0917,-5.093,-5.1047,-5.105,-5.1052,-5.1054,0,-4.9446,-4.9473,-4.9598,-4.9737,-4.9841,-4.9952,-5.006,-5.0127,-5.0196,-5.0297,-5.0446,-5.0539,-5.0722,-5.0867,-5.1009,-5.1077,-5.1078,-5.1082,-5.1115,-5.1108,-5.1083,-5.11,-5.0772,-5.1074,-5.1072,-5.1071,-5.1069,-5.1069,-4.961,-4.9715,-4.9831,-4.9971,-5.0059,-5.016,-5.0267,-5.0336,-5.0462,-5.0616,-5.0639,-5.08,-5.0913,-5.1104,-5.1177,-5.1304,-5.1276,-5.1323,-5.1335,-5.1346,-5.1354,-5.1062,-5.1329,-5.1329,-5.1328,-5.1328,-5.1328,0,-4.9853,-4.9928,-5.0057,-5.0209,-5.032,-5.0313,-5.0433,-5.0526,-5.0668,-5.0773,-5.0891,-5.1065,-5.1206,-5.1297,-5.144,-5.1524,-5.1528,-5.156,-5.1555,-5.1571,-5.137,-5.1328,-5.1554,-5.1554,-5.1554,-5.1554,-5.1554,-5.1554,-4.9992,-5.017,-5.0211,-5.0432,-5.0507,-5.0665,-5.0735,-5.0829,-5.0914,-5.1107,-5.1226,-5.1284,-5.1385,-5.1536,-5.1666,-5.1689,-5.1742,-5.1775,-5.1797,-5.1608,-5.1584,-5.1562,-5.1523,-5.1786,-5.1786,-5.1987,-5.1989,-5.1991]},{"header":{"parameterUnit":"m.s-1","parameterCategory":1,"la1":30.2991,"la2":30.254,"lo1":-89.0895,"lo2":-89.0444,"dy":0.0017,"dx":0.0017,"nx":28,"ny":28,"refTime":"2023-10-05T09:00:00:Z","depth":0,"parameterNumber":3,"parameterNumberName":"V-component_of_WINDS"},"data":[0,0,0,0,0,0,0,0,0,0,0,0,0,0,0,0,0,0,0,0,0,0,0,0,0,0,0,0,0,0,0,0,0,0,0,0,0,0,0,0,0,0,0,0,0,0,0,0,0,0,0,0,0,0,0,0,0,0,-0.6724,-0.6724,0,-0.6677,-0.6676,-0.6675,-0.6632,-0.6632,-0.6631,-0.6631,-0.658,-0.6579,-0.6578,0,0,0,0,0,0,0,0,0,0,0,0,0,-0.6776,-0.6775,-0.6724,-0.6724,-0.6723,-0.6677,-0.6676,-0.6675,-0.6633,-0.6632,-0.6631,-0.6631,-0.658,-0.6579,-0.6578,0,0,0,0,0,0,0,0,0,0,0,0,0,-0.6743,-0.6775,-0.6725,-0.6696,-0.6693,-0.6677,-0.6676,-0.6675,-0.6633,-0.6632,-0.6631,-0.663,-0.658,-0.6579,-0.6578,-0.6584,0,0,-0.6574,-0.6573,0,0,0,0,0,0,0,0,-0.6745,-0.6742,-0.6701,-0.6698,-0.6695,-0.666,-0.6675,-0.6645,-0.6633,-0.6656,-0.6631,-0.663,-0.6607,-0.6603,-0.6596,-0.6582,-0.658,-0.6573,-0.6573,-0.6572,-0.6572,0,0,0,0,0,0,0,-0.6748,-0.6743,-0.6705,-0.6701,-0.6697,-0.6685,-0.668,-0.6669,-0.6636,-0.6654,-0.665,-0.6645,-0.6605,-0.6597,-0.6594,-0.6579,-0.6573,-0.6572,-0.6571,-0.6571,-0.6567,-0.6567,0,0,0,0,0,0,-0.6755,-0.6746,-0.6707,-0.6704,-0.6719,-0.6685,-0.6679,-0.6672,-0.6636,-0.663,-0.6646,-0.6644,-0.66,-0.6596,-0.6592,-0.6597,-0.6572,-0.6571,-0.657,-0.6566,-0.6567,-0.6568,0,0,0,0,0,0,-0.6756,-0.6752,-0.6709,-0.6724,-0.6718,-0.6685,-0.6677,-0.6671,-0.6663,-0.663,-0.6624,-0.6645,-0.6599,-0.6594,-0.6586,-0.6594,-0.657,-0.6569,-0.6565,-0.6566,-0.6567,-0.6607,0,0,0,0,0,0,-0.6758,-0.6752,-0.6755,-0.6724,-0.6717,-0.6705,-0.6678,-0.6671,-0.6662,-0.6658,-0.6627,-0.6621,-0.6598,-0.6589,-0.6585,-0.6592,-0.6568,-0.6564,-0.6566,-0.6567,-0.6605,-0.6609,-0.6613,0,0,0,0,0,-0.676,-0.6768,-0.6756,-0.6751,-0.672,-0.6706,-0.6701,-0.6675,-0.6662,-0.6664,-0.6643,-0.6622,-0.6594,-0.6588,-0.6584,-0.6591,-0.6564,-0.6565,-0.6567,-0.6603,-0.6608,-0.6613,0,0,0,0,0,0,-0.68,-0.6764,-0.6749,-0.6748,-0.673,-0.6698,-0.67,-0.6682,-0.6667,-0.6664,-0.6631,-0.6624,-0.662,-0.6605,-0.6599,-0.6595,-0.6576,-0.6577,-0.6605,-0.661,-0.6614,-0.6617,-0.6567,0,0,0,0,0,-0.6809,-0.6801,-0.6769,-0.6771,-0.6763,-0.6733,-0.6726,-0.6707,-0.6687,-0.6679,-0.6657,-0.6638,-0.6624,-0.6616,-0.6602,-0.6602,-0.6594,-0.6605,-0.6609,-0.6612,-0.6613,-0.6611,-0.6615,-0.6573,-0.6573,-0.6573,0,0,-0.6827,-0.6806,-0.6803,-0.6779,-0.6763,-0.6754,-0.6727,-0.672,-0.6713,-0.6678,-0.6669,-0.6652,-0.6628,-0.6624,-0.6621,-0.6611,-0.6623,-0.6614,-0.6617,-0.6616,-0.6613,-0.6617,-0.662,-0.6574,-0.6574,-0.6574,0,0,-0.6856,-0.684,-0.6839,-0.6824,-0.68,-0.678,-0.678,-0.6751,-0.6738,-0.6729,-0.6703,-0.6693,-0.6672,-0.6655,-0.6644,-0.6666,-0.6646,-0.6662,-0.6683,-0.6682,-0.6685,-0.6688,-0.6694,-0.6697,-0.6663,-0.6663,-0.6663,0,-0.6882,-0.6869,-0.6841,-0.6835,-0.6825,-0.6793,-0.6792,-0.6778,-0.6751,-0.6744,-0.6733,-0.6704,-0.6686,-0.6677,-0.6682,-0.6675,-0.6672,-0.6665,-0.6687,-0.6689,-0.6691,-0.6697,-0.67,-0.6665,-0.6665,-0.6665,-0.6665,0,-0.69,-0.6892,-0.6894,-0.6869,-0.6859,-0.6855,-0.6826,-0.6819,-0.6801,-0.6782,-0.6773,-0.675,-0.673,-0.6726,-0.6709,-0.6715,-0.6709,-0.6693,-0.6674,-0.6698,-0.6703,-0.6705,-0.6668,-0.6668,-0.6667,-0.6666,0,0,-0.6953,-0.6913,-0.6914,-0.6902,-0.6873,-0.6866,-0.686,-0.6841,-0.6835,-0.6817,-0.6811,-0.6793,-0.6778,-0.6765,-0.6745,-0.6743,-0.6761,-0.6727,-0.6726,-0.6734,-0.6765,-0.6776,-0.678,-0.6748,-0.6748,-0.6748,-0.6766,0,-0.6977,-0.6966,-0.6941,-0.6937,-0.6928,-0.6898,-0.6892,-0.6874,-0.6856,-0.6844,-0.6824,-0.6811,-0.6793,-0.6784,-0.6782,-0.676,-0.6767,-0.6758,-0.674,-0.674,-0.6747,-0.6782,-0.6795,-0.6813,-0.6768,-0.6769,-0.6769,0,-0.7002,-0.6987,-0.6982,-0.6953,-0.6949,-0.6945,-0.6925,-0.6915,-0.6893,-0.6879,-0.6865,-0.6843,-0.6834,-0.6817,-0.6804,-0.6798,-0.6789,-0.6777,-0.6777,-0.6774,-0.6755,-0.6779,-0.6819,-0.6821,-0.6772,-0.6772,-0.6771,0,-0.704,-0.7018,-0.7012,-0.7003,-0.6969,-0.6967,-0.6953,-0.693,-0.692,-0.6902,-0.6895,-0.6877,-0.6867,-0.6852,-0.6825,-0.6815,-0.6814,-0.6795,-0.6802,-0.6803,-0.6803,-0.6803,-0.684,-0.6799,-0.6798,-0.6798,-0.6798,0,-0.7069,-0.7067,-0.7029,-0.7025,-0.7022,-0.6993,-0.699,-0.6973,-0.6952,-0.6944,-0.6917,-0.6909,-0.6875,-0.6863,-0.6841,-0.6833,-0.6829,-0.6817,-0.6811,-0.6819,-0.682,-0.6812,-0.681,-0.6799,-0.6799,-0.6799,-0.6799,0,-0.711,-0.7085,-0.7077,-0.7045,-0.7038,-0.7036,-0.7009,-0.7004,-0.6984,-0.6974,-0.6969,-0.6938,-0.6922,-0.6894,-0.6871,-0.6856,-0.6852,-0.6842,-0.686,-0.6856,-0.6864,-0.6863,-0.6897,-0.6899,-0.6857,-0.6858,-0.6858,0,-0.713,-0.7128,-0.7096,-0.7089,-0.7076,-0.7065,-0.7055,-0.7026,-0.7016,-0.699,-0.6987,-0.697,-0.6954,-0.6931,-0.6905,-0.6886,-0.6876,-0.6889,-0.6873,-0.688,-0.6875,-0.6875,-0.6874,-0.6892,-0.6893,-0.6893,-0.6894,0,-0.7166,-0.7154,-0.7141,-0.7123,-0.7112,-0.7096,-0.7079,-0.7075,-0.7041,-0.7032,-0.7016,-0.7004,-0.698,-0.6962,-0.694,-0.6924,-0.6903,-0.6899,-0.6899,-0.6907,-0.6917,-0.691,-0.6869,-0.6898,-0.6898,-0.6897,-0.6897,-0.6897,-0.7197,-0.7193,-0.717,-0.7156,-0.7141,-0.7125,-0.7119,-0.7098,-0.7085,-0.7063,-0.7047,-0.7032,-0.7008,-0.6976,-0.6961,-0.6948,-0.6939,-0.6939,-0.6939,-0.694,-0.6943,-0.692,-0.6944,-0.6944,-0.6944,-0.6944,-0.6944,0,-0.7231,-0.7215,-0.7202,-0.718,-0.7168,-0.7151,-0.7131,-0.7122,-0.711,-0.709,-0.7075,-0.7056,-0.7039,-0.7012,-0.6992,-0.6987,-0.6977,-0.6983,-0.6982,-0.6979,-0.6953,-0.6954,-0.6991,-0.6991,-0.6991,-0.6991,-0.6991,-0.6991,-0.7248,-0.724,-0.7225,-0.7209,-0.7193,-0.7179,-0.7169,-0.7154,-0.7138,-0.7118,-0.7104,-0.7087,-0.7064,-0.7042,-0.7025,-0.7017,-0.7011,-0.7019,-0.7009,-0.6985,-0.6981,-0.6976,-0.6977,-0.7019,-0.7019,-0.7035,-0.7035,-0.7035]}]]